Wind_Speed
49 48 47 46 46 47 47 46 46 45 44 43 43 45 45 46 47 48 49 51 52 52 53 55 55 56 59 62 67 68 68 68
47 47 47 46 46 46 46 47 47 47 46 46 47 48 49 51 49 49 49 50 52 53 55 56 57 59 62 65 68 69 67 67
47 49 51 51 50 51 51 51 50 50 50 49 49 49 49 48 48 50 50 52 55 56 57 58 61 64 66 68 72 76 69 70
54 52 52 50 52 53 52 52 51 49 48 47 47 48 48 48 50 50 49 50 51 52 55 57 60 62 63 66 71 77 76 70
60 56 54 50 50 51 50 49 47 46 46 46 45 46 46 47 48 48 49 49 50 51 52 52 55 57 59 61 65 68 73 72
59 58 58 54 49 49 48 46 44 43 43 43 44 45 47 47 48 50 50 50 50 49 49 51 53 54 56 57 57 60 65 70
61 57 57 52 48 45 43 42 42 41 41 42 44 45 47 48 49 50 51 51 49 48 48 49 52 54 56 56 55 55 57 60
57 56 50 46 43 42 42 41 41 40 41 41 43 46 48 49 50 50 50 48 47 48 47 48 48 49 51 52 52 53 56 58
52 49 45 42 40 39 40 40 40 40 40 41 42 46 47 48 50 49 47 45 45 48 47 45 48 51 53 54 56 53 57 55
42 36 39 39 39 40 42 42 41 40 41 41 42 47 48 47 46 44 44 43 43 46 47 46 47 43 38 42 46 50 45 46
37 41 41 41 42 42 43 42 42 42 43 45 45 49 49 46 43 40 40 42 45 45 43 45 39 45 50 48 51 47 48 45
42 40 39 41 42 43 42 43 46 46 47 49 48 51 48 44 41 39 37 38 39 39 37 39 43 41 44 44 48 47 47 49
47 43 49 48 43 41 41 39 41 44 45 47 50 49 44 42 39 35 32 32 32 32 32 32 35 35 37 40 40 42 43 46
37 37 40 44 43 42 41 43 44 46 48 46 44 41 40 39 37 35 32 30 30 30 30 30 31 33 33 36 38 39 40 45
45 29 46 47 44 42 44 45 46 46 43 41 42 41 42 41 38 36 35 34 33 31 31 29 29 30 30 31 33 37 39 43
54 57 51 47 47 48 48 49 47 44 44 45 44 42 40 40 38 36 35 33 33 31 29 28 28 30 31 32 34 36 35 36
44 41 48 48 46 48 50 51 46 46 43 40 37 34 33 35 35 32 33 32 30 28 27 28 30 32 33 35 35 34 34 36
51 41 42 42 47 49 50 48 43 39 35 32 34 36 38 38 38 36 32 31 28 27 26 28 30 30 31 28 29 27 22 22
45 46 45 48 50 48 45 40 36 35 35 35 35 36 37 38 38 35 33 27 27 27 24 23 23 19 18 22 21 13 12 15
Wind_Direction
287 287 286 285 283 283 284 283 282 282 282 281 279 279 278 277 276 274 274 273 273 273 271 270 268 267 267 269 272 271 273 274
286 289 289 288 286 286 285 283 282 282 282 282 281 280 279 278 279 278 277 275 273 272 272 271 270 270 269 268 271 274 274 274
283 284 286 287 287 286 286 286 285 284 284 284 283 282 280 280 278 277 277 277 276 274 274 272 271 271 269 268 267 273 274 272
282 285 285 285 284 284 285 285 285 285 285 284 283 283 283 283 284 282 279 277 275 275 275 276 274 271 270 269 269 269 273 275
282 285 285 285 286 286 287 285 285 285 285 286 285 285 285 285 285 283 283 280 278 277 277 272 269 266 262 260 261 263 266 270
286 288 286 288 289 288 287 288 287 287 287 286 286 286 286 285 284 283 282 280 277 277 275 273 269 266 266 265 263 261 260 263
291 292 290 290 290 289 288 287 286 286 287 287 287 287 286 286 286 285 283 280 277 277 275 271 268 266 266 266 267 267 266 267
292 291 291 288 286 285 285 284 284 286 287 287 288 289 289 288 289 289 287 281 279 277 279 275 274 267 268 264 265 272 270 269
291 290 286 284 282 281 283 283 285 286 285 287 290 292 292 290 291 291 285 279 279 277 275 278 272 269 269 262 263 270 272 270
282 288 289 283 283 284 284 284 284 283 285 288 291 296 295 292 290 291 287 280 281 282 275 276 275 270 275 267 265 270 267 270
274 291 291 284 282 283 284 284 284 285 288 290 292 300 297 291 291 292 288 283 282 281 278 278 273 275 277 276 274 274 271 274
288 290 288 292 289 287 287 288 288 289 291 290 293 298 295 291 294 292 290 288 284 282 278 274 278 281 278 275 274 273 273 272
291 289 287 291 291 290 292 292 292 293 293 294 296 296 291 291 292 291 291 293 288 285 280 275 277 280 277 274 277 277 274 272
269 288 292 291 293 294 295 294 294 294 297 296 295 293 291 291 287 287 289 292 292 292 291 288 285 283 282 282 277 276 277 280
288 279 295 295 295 295 295 296 295 295 293 294 294 294 292 292 289 286 285 284 287 292 295 297 297 298 299 300 295 288 281 277
285 288 292 294 297 290 292 296 295 292 291 293 295 294 294 294 294 291 285 282 282 285 290 294 297 300 304 308 309 309 306 298
279 289 291 295 293 289 288 291 292 290 292 295 293 292 293 295 297 297 287 281 278 277 280 284 286 292 301 303 304 302 308 314
281 291 289 293 295 290 288 289 291 294 293 291 293 293 293 293 292 292 286 281 271 267 273 279 284 289 293 288 298 291 296 322
289 286 290 292 292 288 288 290 293 292 291 292 291 293 296 292 290 282 278 272 264 267 263 266 276 281 302 292 292 277 298 300
Height
5759 5758 5756 5754 5753 5752 5751 5749 5748 5747 5746 5745 5744 5742 5742 5743 5744 5742 5742 5741 5740 5739 5740 5739 5739 5739 5738 5736 5729 5729 5728 5730
5749 5748 5747 5744 5742 5742 5740 5738 5736 5735 5734 5733 5732 5730 5729 5729 5728 5728 5727 5726 5726 5725 5725 5725 5726 5724 5723 5721 5717 5711 5712 5713
5739 5737 5735 5733 5731 5730 5728 5727 5725 5723 5722 5720 5719 5718 5716 5716 5714 5714 5711 5712 5710 5709 5709 5710 5711 5709 5709 5707 5703 5695 5695 5696
5729 5727 5724 5721 5719 5718 5716 5714 5712 5711 5709 5707 5706 5704 5702 5702 5700 5699 5695 5695 5693 5692 5692 5694 5693 5693 5693 5692 5690 5687 5678 5676
5720 5717 5714 5711 5708 5706 5704 5701 5700 5698 5696 5695 5693 5690 5688 5686 5684 5681 5679 5677 5674 5673 5674 5673 5672 5672 5672 5673 5673 5672 5668 5663
5705 5703 5701 5699 5696 5693 5691 5689 5687 5685 5684 5681 5679 5677 5674 5672 5669 5667 5664 5661 5659 5658 5658 5656 5654 5653 5653 5653 5654 5655 5654 5652
5691 5689 5688 5686 5684 5682 5680 5678 5676 5674 5672 5670 5667 5664 5661 5658 5655 5651 5649 5646 5644 5643 5642 5641 5640 5640 5639 5639 5638 5637 5638 5637
5681 5678 5677 5674 5673 5671 5669 5667 5665 5662 5661 5658 5655 5652 5648 5645 5641 5637 5634 5631 5629 5628 5627 5626 5626 5626 5625 5625 5625 5624 5622 5621
5669 5668 5666 5665 5663 5661 5659 5656 5653 5651 5649 5647 5643 5639 5635 5631 5628 5624 5621 5619 5617 5615 5614 5613 5612 5611 5611 5610 5611 5610 5608 5606
5659 5659 5657 5656 5654 5651 5649 5646 5643 5641 5639 5636 5632 5628 5623 5619 5615 5612 5609 5606 5604 5602 5601 5601 5599 5598 5597 5596 5598 5597 5595 5594
5649 5650 5648 5646 5644 5641 5638 5636 5633 5630 5627 5624 5621 5616 5612 5607 5604 5601 5598 5595 5592 5591 5590 5590 5588 5588 5587 5586 5585 5584 5583 5581
5640 5639 5640 5638 5635 5632 5628 5624 5623 5619 5615 5612 5608 5605 5600 5596 5593 5590 5587 5584 5582 5580 5579 5579 5578 5577 5575 5574 5573 5572 5570 5570
5625 5626 5628 5627 5624 5622 5618 5614 5610 5607 5604 5600 5596 5592 5588 5585 5583 5581 5578 5575 5572 5570 5569 5568 5567 5566 5565 5563 5562 5560 5559 5559
5618 5616 5614 5616 5613 5610 5609 5604 5600 5597 5592 5589 5585 5581 5578 5576 5575 5572 5570 5567 5565 5562 5560 5558 5557 5556 5554 5553 5551 5549 5547 5546
5608 5605 5606 5605 5602 5601 5598 5594 5590 5586 5581 5578 5575 5572 5569 5567 5565 5562 5560 5559 5557 5555 5554 5552 5550 5548 5546 5544 5541 5538 5534 5533
5604 5598 5598 5594 5592 5591 5588 5584 5579 5575 5571 5568 5565 5562 5560 5557 5554 5553 5551 5550 5549 5548 5547 5545 5544 5543 5540 5536 5532 5528 5524 5520
5592 5587 5586 5585 5583 5580 5577 5573 5568 5565 5561 5558 5555 5553 5550 5548 5546 5545 5543 5542 5541 5541 5540 5540 5539 5537 5533 5529 5527 5523 5517 5512
5581 5579 5579 5576 5572 5569 5565 5561 5557 5554 5552 5549 5547 5544 5541 5539 5538 5536 5535 5534 5534 5533 5534 5534 5533 5530 5528 5525 5519 5516 5513 5509
5573 5572 5569 5566 5562 5558 5554 5551 5548 5545 5543 5540 5538 5535 5532 5530 5528 5527 5526 5526 5527 5527 5527 5527 5526 5524 5521 5518 5516 5511 5509 5506